Flag for Germany Weather past 2 weeks in Schwedt/Oder, Brandenburg, Germany

Now
66 °F

Sunny.


Feels Like: 66 °F
Forecast: 54 / 73 °F
Wind: 5 mph from East

Location: Szczecin Airport

Current Time: Sep 16, 2014 at 8:00:20 PM

Latest Report: Sep 16, 2014 at 7:30 PM


Visibility: 10 mi

Pressure: 30.12 "Hg

Humidity: 64%

Dew point: 54 °F

Location of Schwedt/OderLocation

Historic Weather in Schwedt/Oder — Graph

°F

Schwedt/Oder temperature yesterday

Maximum temperature yesterday: 79 °F (at 4:30 PM)
Minimum temperature yesterday: 59 °F (at 4:30 AM)
Average temperature yesterday: 67 °F

Past Weeks' High & Low Weather Summary

 TemperatureHumidityPressure
High79 °F (Sep 15, 4:30 PM)100% (Sep 2, 12:00 AM)30.33 "Hg (Sep 2, 12:00 AM)
Low48 °F (Sep 10, 10:30 PM)39% (Sep 6, 2:30 PM)29.89 "Hg (Sep 7, 3:30 PM)
Average62 °F79%30.09 "Hg
* Reported Sep 1 7:00 PM — Sep 16 7:00 PM, Schwedt/Oder, Weather by CustomWeather, © 2014

Note: Actual official high and low records may vary slightly from our data, if they occured in-between our weather recording intervals... More about our weather records

Advertising

Schwedt/Oder weather history for previous 24 hours

 ConditionsComfort  
Time TempWeatherWind HumidityBarometerVisibility
7:00 PM
Sep 16
68 °FSunny.5 mph64%30.12 "Hg10 mi
6:30 PM70 °FSunny.3 mph57%30.12 "Hg10 mi
6:00 PM72 °FSunny.3 mph53%30.12 "Hg10 mi
5:30 PM73 °FSunny.6 mph47%30.12 "Hg10 mi
5:00 PM73 °FSunny.8 mph47%30.12 "Hg10 mi
4:30 PM73 °FSunny.7 mph50%30.12 "Hg10 mi
4:00 PM73 °FSunny.8 mph50%30.15 "Hg10 mi
3:30 PM73 °FSunny.8 mph50%30.15 "Hg10 mi
3:00 PM75 °FSunny.8 mph44%30.15 "Hg10 mi
2:30 PM73 °FSunny.10 mph47%30.15 "Hg10 mi
1:30 PM72 °FSunny.8 mph53%30.15 "Hg10 mi
1:00 PM72 °FSunny.10 mph50%30.18 "Hg10 mi
12:30 PM70 °FSunny.10 mph53%30.18 "Hg10 mi
12:00 PM70 °FSunny.12 mph53%30.18 "Hg10 mi
11:30 AM70 °FSunny.12 mph57%30.18 "Hg10 mi
11:00 AM68 °FSunny.8 mph64%30.18 "Hg10 mi
10:30 AM66 °FSunny.8 mph64%30.18 "Hg10 mi
10:00 AM64 °FSunny.7 mph68%30.18 "Hg10 mi
9:30 AM63 °FSunny.6 mph73%30.18 "Hg10 mi
9:00 AM61 °FSunny.5 mph72%30.18 "Hg10 mi
8:30 AM59 °FSunny.5 mph72%30.18 "Hg10 mi
8:00 AM57 °FSunny.6 mph82%30.18 "Hg10 mi
7:30 AM57 °FClear.6 mph77%30.18 "Hg10 mi
7:00 AM57 °FClear.7 mph77%30.15 "Hg10 mi
6:30 AM57 °FClear.7 mph77%30.15 "Hg10 mi
6:00 AM57 °FClear.7 mph82%30.15 "Hg10 mi
5:30 AM57 °FClear.7 mph82%30.15 "Hg10 mi
5:00 AM57 °FClear.7 mph82%30.15 "Hg10 mi
4:30 AM59 °FClear.8 mph77%30.15 "Hg10 mi
4:00 AM59 °FClear.8 mph77%30.15 "Hg10 mi
3:00 AM61 °FClear.7 mph77%30.15 "Hg10 mi
2:30 AM61 °FClear.6 mph77%30.15 "Hg10 mi
2:00 AM61 °FClear.6 mph77%30.15 "Hg10 mi
1:30 AM61 °FClear.7 mph77%30.15 "Hg10 mi
1:00 AM61 °FClear.8 mph77%30.15 "Hg10 mi
12:30 AM63 °FClear.8 mph73%30.18 "Hg10 mi
12:00 AM63 °FClear.8 mph73%30.18 "Hg10 mi
11:30 PM
Sep 15
64 °FClear.7 mph68%30.15 "Hg10 mi
11:00 PM64 °FClear.7 mph68%30.15 "Hg10 mi
10:30 PM64 °FClear.7 mph68%30.15 "Hg10 mi
10:00 PM64 °FClear.6 mph73%30.15 "Hg10 mi
9:30 PM64 °FClear.6 mph73%30.15 "Hg10 mi
9:00 PM66 °FClear.6 mph68%30.15 "Hg10 mi
8:30 PM66 °FClear.7 mph68%30.15 "Hg10 mi
8:00 PM66 °FSunny.6 mph68%30.15 "Hg10 mi
Weather by CustomWeather, © 2014

See weather overviewHow to use our weather pages